Location: �mondeville
(49.4591°N, 1.3431°W)
Time: 02:16:04
(UTC+00:00)

Cosmos 2058 Rocket - Pass Details

Date: 22 October 2019
Orbit: 611 x 639 km, 82.5° (Epoch: 14 November)

Event Time Altitude Azimuth Distance (km) Brightness Sun altitude
Rises 04:18:23 0° 354° (N) 2,905 6.6 -23.1°
Reaches altitude 10° 04:20:40 10° 359° (N) 1,998 5.8 -22.7°
Maximum altitude 04:24:59 50° 76° (ENE) 799 4.0 -22.0°
Drops below altitude 10° 04:29:18 10° 152° (SSE) 2,000 5.9 -21.4°
Sets 04:31:35 0° 158° (SSE) 2,907 6.7 -21.0°
